Time,TemperatureF,DewpointF,PressureIn,WindDirection,WindDirectionDegrees,WindSpeedMPH,WindSpeedGustMPH,Humidity,HourlyPrecipIn,Conditions,Clouds,dailyrainin,SolarRadiationWatts/m^2,SoftwareType,DateUTC
2014-01-01 00:02:00,43.0,43.0,-100.00,North,-999,0.0,0.0,100,0.01,,,0.01,0.000000,,2014-01-01 06:02:00,
2014-01-01 00:12:00,43.0,43.0,-100.00,North,-999,0.0,0.0,100,0.01,,,0.01,0.000000,,2014-01-01 06:12:00,
2014-01-01 00:42:00,43.0,43.0,-100.00,North,-999,0.0,0.0,100,0.00,,,0.01,0.000000,,2014-01-01 06:42:00,
2014-01-01 00:53:00,43.0,43.0,-100.00,North,-999,0.0,0.0,100,0.00,,,0.01,0.000000,,2014-01-01 06:53:00,
2014-01-01 01:02:00,43.0,43.0,-100.00,North,-999,0.0,0.0,100,0.00,,,0.01,0.000000,,2014-01-01 07:02:00,
2014-01-01 01:12:00,43.0,43.0,-100.00,North,-999,0.0,0.0,100,0.00,,,0.01,0.000000,,2014-01-01 07:12:00,
2014-01-01 01:42:00,43.0,43.0,-100.00,North,-999,0.0,0.0,100,0.01,,,0.02,0.000000,,2014-01-01 07:42:00,
2014-01-01 01:52:00,43.0,43.0,-100.00,North,-999,0.0,0.0,100,0.01,,,0.02,0.000000,,2014-01-01 07:52:00,
2014-01-01 02:02:00,43.0,43.0,-100.00,North,-999,0.0,0.0,100,0.01,,,0.02,0.000000,,2014-01-01 08:02:00,
2014-01-01 02:12:00,43.0,43.0,-100.00,North,-999,0.0,0.0,100,0.01,,,0.02,0.000000,,2014-01-01 08:12:00,
2014-01-01 02:42:00,43.0,43.0,-100.00,North,-999,0.0,0.0,100,0.02,,,0.04,0.000000,,2014-01-01 08:42:00,
2014-01-01 02:52:00,43.0,43.0,-100.00,North,-999,0.0,0.0,100,0.02,,,0.04,0.000000,,2014-01-01 08:52:00,
2014-01-01 03:03:00,43.0,43.0,-100.00,North,-999,0.0,0.0,100,0.02,,,0.04,0.000000,,2014-01-01 09:03:00,
2014-01-01 03:11:00,43.0,43.0,-100.00,North,-999,0.0,0.0,100,0.02,,,0.04,0.000000,,2014-01-01 09:11:00,
2014-01-01 03:43:00,43.0,43.0,-100.00,North,-999,0.0,0.0,100,0.05,,,0.09,0.000000,,2014-01-01 09:43:00,
2014-01-01 03:53:00,43.0,43.0,-100.00,North,-999,0.0,0.0,100,0.05,,,0.09,0.000000,,2014-01-01 09:53:00,
2014-01-01 04:02:00,43.0,43.0,-100.00,North,-999,0.0,0.0,100,0.05,,,0.09,0.000000,,2014-01-01 10:02:00,
2014-01-01 04:12:00,43.0,43.0,-100.00,North,-999,0.0,0.0,100,0.05,,,0.09,0.000000,,2014-01-01 10:12:00,
2014-01-01 04:43:00,43.0,43.0,-100.00,East,87,3.0,6.0,100,0.05,,,0.14,0.000000,,2014-01-01 10:43:00,
2014-01-01 04:53:00,43.0,43.0,-100.00,East,87,3.0,6.0,100,0.05,,,0.14,0.000000,,2014-01-01 10:53:00,
2014-01-01 05:02:00,43.0,43.0,-100.00,East,87,3.0,6.0,100,0.05,,,0.14,0.000000,,2014-01-01 11:02:00,
2014-01-01 05:12:00,43.0,43.0,-100.00,East,87,3.0,6.0,100,0.05,,,0.14,0.000000,,2014-01-01 11:12:00,
2014-01-01 05:42:00,43.0,43.0,-100.00,SE,141,3.0,7.0,100,0.02,,,0.16,0.000000,,2014-01-01 11:42:00,
2014-01-01 05:53:00,43.0,43.0,-100.00,SE,141,3.0,7.0,100,0.02,,,0.16,0.000000,,2014-01-01 11:53:00,
2014-01-01 06:02:00,43.0,43.0,-100.00,SE,141,3.0,7.0,100,0.02,,,0.16,0.000000,,2014-01-01 12:02:00,
2014-01-01 06:12:00,43.0,43.0,-100.00,SE,141,3.0,7.0,100,0.02,,,0.16,0.000000,,2014-01-01 12:12:00,
2014-01-01 06:42:00,43.0,43.0,-100.00,North,-999,0.0,4.0,100,0.02,,,0.18,0.000000,,2014-01-01 12:42:00,
2014-01-01 06:52:00,43.0,43.0,-100.00,North,-999,0.0,4.0,100,0.02,,,0.18,0.000000,,2014-01-01 12:52:00,
2014-01-01 07:02:00,43.0,43.0,-100.00,North,-999,0.0,4.0,100,0.02,,,0.18,0.000000,,2014-01-01 13:02:00,
2014-01-01 07:12:00,43.0,43.0,-100.00,North,-999,0.0,4.0,100,0.02,,,0.18,0.000000,,2014-01-01 13:12:00,
2014-01-01 07:42:00,44.0,44.0,-100.00,North,-999,0.0,0.0,100,0.00,,,0.18,1.000000,,2014-01-01 13:42:00,
2014-01-01 07:52:00,44.0,44.0,-100.00,North,-999,0.0,0.0,100,0.00,,,0.18,1.000000,,2014-01-01 13:52:00,
2014-01-01 08:01:00,44.0,44.0,-100.00,North,-999,0.0,0.0,100,0.00,,,0.18,1.000000,,2014-01-01 14:01:00,
2014-01-01 08:12:00,44.0,44.0,-100.00,North,-999,0.0,0.0,100,0.00,,,0.18,1.000000,,2014-01-01 14:12:00,
2014-01-01 08:42:00,45.0,45.0,-100.00,North,-999,0.0,0.0,100,0.00,,,0.18,27.000000,,2014-01-01 14:42:00,
2014-01-01 08:53:00,45.0,45.0,-100.00,North,-999,0.0,0.0,100,0.00,,,0.18,27.000000,,2014-01-01 14:53:00,
2014-01-01 09:02:00,45.0,45.0,-100.00,North,-999,0.0,0.0,100,0.00,,,0.18,27.000000,,2014-01-01 15:02:00,
2014-01-01 09:11:00,45.0,45.0,-100.00,North,-999,0.0,0.0,100,0.00,,,0.18,27.000000,,2014-01-01 15:11:00,
2014-01-01 09:43:00,46.0,46.0,-100.00,North,-999,0.0,0.0,100,0.00,,,0.18,65.000000,,2014-01-01 15:43:00,
2014-01-01 09:53:00,46.0,46.0,-100.00,North,-999,0.0,0.0,100,0.00,,,0.18,65.000000,,2014-01-01 15:53:00,
2014-01-01 10:03:00,46.0,46.0,-100.00,North,-999,0.0,0.0,100,0.00,,,0.18,65.000000,,2014-01-01 16:03:00,
2014-01-01 10:13:00,46.0,46.0,-100.00,North,-999,0.0,0.0,100,0.00,,,0.18,65.000000,,2014-01-01 16:13:00,
2014-01-01 10:43:00,48.0,48.0,-100.00,North,-999,0.0,0.0,100,0.00,,,0.18,121.000000,,2014-01-01 16:43:00,
2014-01-01 10:53:00,48.0,48.0,-100.00,North,-999,0.0,0.0,100,0.00,,,0.18,121.000000,,2014-01-01 16:53:00,
2014-01-01 11:02:00,48.0,48.0,-100.00,North,-999,0.0,0.0,100,0.00,,,0.18,121.000000,,2014-01-01 17:02:00,
2014-01-01 11:12:00,48.0,48.0,-100.00,North,-999,0.0,0.0,100,0.00,,,0.18,121.000000,,2014-01-01 17:12:00,
2014-01-01 11:43:00,51.0,50.0,-100.00,North,-999,0.0,0.0,98,0.00,,,0.18,162.000000,,2014-01-01 17:43:00,
2014-01-01 11:52:00,51.0,50.0,-100.00,North,-999,0.0,0.0,98,0.00,,,0.18,162.000000,,2014-01-01 17:52:00,
2014-01-01 12:02:00,51.0,50.0,-100.00,North,-999,0.0,0.0,98,0.00,,,0.18,162.000000,,2014-01-01 18:02:00,
2014-01-01 12:12:00,51.0,50.0,-100.00,North,-999,0.0,0.0,98,0.00,,,0.18,162.000000,,2014-01-01 18:12:00,
2014-01-01 12:42:00,52.0,50.0,-100.00,North,-999,0.0,0.0,94,0.00,,,0.18,208.000000,,2014-01-01 18:42:00,
2014-01-01 12:53:00,52.0,50.0,-100.00,North,-999,0.0,0.0,94,0.00,,,0.18,208.000000,,2014-01-01 18:53:00,
2014-01-01 13:01:00,52.0,50.0,-100.00,North,-999,0.0,0.0,94,0.00,,,0.18,208.000000,,2014-01-01 19:01:00,
2014-01-01 13:12:00,52.0,50.0,-100.00,North,-999,0.0,0.0,94,0.00,,,0.18,208.000000,,2014-01-01 19:12:00,
2014-01-01 13:42:00,54.0,51.0,-100.00,North,-999,0.0,0.0,90,0.00,,,0.18,218.000000,,2014-01-01 19:42:00,
2014-01-01 13:53:00,54.0,51.0,-100.00,North,-999,0.0,0.0,90,0.00,,,0.18,218.000000,,2014-01-01 19:53:00,
2014-01-01 14:03:00,54.0,51.0,-100.00,North,-999,0.0,0.0,90,0.00,,,0.18,218.000000,,2014-01-01 20:03:00,
2014-01-01 14:12:00,54.0,51.0,-100.00,North,-999,0.0,0.0,90,0.00,,,0.18,218.000000,,2014-01-01 20:12:00,
2014-01-01 14:42:00,55.0,51.0,-100.00,ESE,104,3.0,6.0,86,0.00,,,0.18,221.000000,,2014-01-01 20:42:00,
2014-01-01 14:53:00,55.0,51.0,-100.00,ESE,104,3.0,6.0,86,0.00,,,0.18,221.000000,,2014-01-01 20:53:00,
2014-01-01 15:02:00,55.0,51.0,-100.00,ESE,104,3.0,6.0,86,0.00,,,0.18,221.000000,,2014-01-01 21:02:00,
2014-01-01 15:11:00,55.0,51.0,-100.00,ESE,104,3.0,6.0,86,0.00,,,0.18,221.000000,,2014-01-01 21:11:00,
2014-01-01 15:43:00,56.0,51.0,-100.00,East,81,3.0,5.0,84,0.00,,,0.18,162.000000,,2014-01-01 21:43:00,
2014-01-01 15:53:00,56.0,51.0,-100.00,East,81,3.0,5.0,84,0.00,,,0.18,162.000000,,2014-01-01 21:53:00,
2014-01-01 16:03:00,56.0,51.0,-100.00,East,81,3.0,5.0,84,0.00,,,0.18,162.000000,,2014-01-01 22:03:00,
2014-01-01 16:13:00,56.0,51.0,-100.00,East,81,3.0,5.0,84,0.00,,,0.18,162.000000,,2014-01-01 22:13:00,
2014-01-01 16:42:00,55.0,52.0,-100.00,ENE,59,2.0,5.0,89,0.00,,,0.18,65.000000,,2014-01-01 22:42:00,
2014-01-01 16:53:00,55.0,52.0,-100.00,ENE,59,2.0,5.0,89,0.00,,,0.18,65.000000,,2014-01-01 22:53:00,
2014-01-01 17:02:00,55.0,52.0,-100.00,ENE,59,2.0,5.0,89,0.00,,,0.18,65.000000,,2014-01-01 23:02:00,
2014-01-01 17:12:00,55.0,52.0,-100.00,ENE,59,2.0,5.0,89,0.00,,,0.18,65.000000,,2014-01-01 23:12:00,
2014-01-01 17:43:00,53.0,52.0,-100.00,North,-999,0.0,5.0,97,0.00,,,-99.99,10.000000,,2014-01-01 23:43:00,
2014-01-01 17:53:00,53.0,52.0,-100.00,North,-999,0.0,5.0,97,0.00,,,-99.99,10.000000,,2014-01-01 23:53:00,
2014-01-01 18:02:00,53.0,52.0,-100.00,North,-999,0.0,5.0,97,0.00,,,-99.99,10.000000,,2014-01-02 00:02:00,
2014-01-01 18:11:00,53.0,52.0,-100.00,North,-999,0.0,5.0,97,0.00,,,-99.99,10.000000,,2014-01-02 00:11:00,
2014-01-01 18:42:00,51.0,51.0,-100.00,North,-999,0.0,5.0,100,0.00,,,0.18,0.000000,,2014-01-02 00:42:00,
2014-01-01 18:52:00,51.0,51.0,-100.00,North,-999,0.0,5.0,100,0.00,,,0.18,0.000000,,2014-01-02 00:52:00,
2014-01-01 19:02:00,51.0,51.0,-100.00,North,-999,0.0,5.0,100,0.00,,,0.18,0.000000,,2014-01-02 01:02:00,
2014-01-01 19:11:00,51.0,51.0,-100.00,North,-999,0.0,5.0,100,0.00,,,0.18,0.000000,,2014-01-02 01:11:00,
2014-01-01 19:42:00,50.0,50.0,-100.00,NNE,24,2.0,5.0,100,0.00,,,0.18,0.000000,,2014-01-02 01:42:00,
2014-01-01 19:52:00,50.0,50.0,-100.00,NNE,24,2.0,5.0,100,0.00,,,0.18,0.000000,,2014-01-02 01:52:00,
2014-01-01 20:02:00,50.0,50.0,-100.00,NNE,24,2.0,5.0,100,0.00,,,0.18,0.000000,,2014-01-02 02:02:00,
2014-01-01 20:11:00,50.0,50.0,-100.00,NNE,24,2.0,5.0,100,0.00,,,0.18,0.000000,,2014-01-02 02:11:00,
2014-01-01 20:52:00,51.0,51.0,-100.00,ESE,115,3.0,6.0,100,0.00,,,0.18,0.000000,,2014-01-02 02:52:00,
2014-01-01 21:02:00,51.0,51.0,-100.00,ESE,115,3.0,6.0,100,0.00,,,0.18,0.000000,,2014-01-02 03:02:00,
2014-01-01 21:12:00,51.0,51.0,-100.00,ESE,115,3.0,6.0,100,0.00,,,0.18,0.000000,,2014-01-02 03:12:00,
2014-01-01 21:43:00,51.0,51.0,-100.00,East,82,2.0,7.0,100,0.00,,,-99.99,0.000000,,2014-01-02 03:43:00,
2014-01-01 21:53:00,51.0,51.0,-100.00,East,82,2.0,7.0,100,0.00,,,-99.99,0.000000,,2014-01-02 03:53:00,
2014-01-01 22:03:00,51.0,51.0,-100.00,East,82,2.0,7.0,100,0.00,,,-99.99,0.000000,,2014-01-02 04:03:00,
2014-01-01 22:13:00,51.0,51.0,-100.00,East,82,2.0,7.0,100,0.00,,,-99.99,0.000000,,2014-01-02 04:13:00,
2014-01-01 22:43:00,50.0,50.0,-100.00,North,-999,0.0,4.0,100,0.00,,,0.18,0.000000,,2014-01-02 04:43:00,
2014-01-01 22:53:00,50.0,50.0,-100.00,North,-999,0.0,4.0,100,0.00,,,0.18,0.000000,,2014-01-02 04:53:00,
2014-01-01 23:02:00,50.0,50.0,-100.00,North,-999,0.0,4.0,100,0.00,,,0.18,0.000000,,2014-01-02 05:02:00,
2014-01-01 23:12:00,50.0,50.0,-100.00,North,-999,0.0,4.0,100,0.00,,,0.18,0.000000,,2014-01-02 05:12:00,
2014-01-01 23:42:00,50.0,50.0,-100.00,NE,49,1.0,5.0,100,0.00,,,0.17,0.000000,,2014-01-02 05:42:00,
2014-01-01 23:53:00,50.0,50.0,-100.00,NE,49,1.0,5.0,100,0.00,,,0.17,0.000000,,2014-01-02 05:53:00,